STARLINK-32365, 61625

Orbit data source: Space-Track

STARLINK-32365, 61625 is a payload satellite owned by SpaceX/Seattle (US) in LEO that was launched on Wed, 23 Oct 2024 UTC via an FALCON 9 launch vehicle from the Air Force Eastern Test Range (AFETR). Payload-class satellites include a variety of spacecraft equipped with specific instruments for various scientific and technological missions. These include communications satellites like Starlink; space stations such as the ISS; scientific satellites like the Hubble; Earth observation satellites from companies like Planet Labs, Umbra, and HawkEye 360; GPS; miniature CubeSats for education and research; and military/defense satellites.

Loading next visibility...
Identifier
61625, 2024-191E
Orbit
LEO
Last TLE update
8 hours ago
Origin
Manufacturer
SpaceX/Seattle
Mission
Operational Commercial Communications
Bus & Motor
STARLINK V2M, Unknown motor
Mass
730 kg wet, ~700 kg dry
Launch date (UTC)
2024-10-23 (8 months ago)
Launch vehicle
FALCON 9
Launch site
Air Force Eastern Test Range (AFETR)
Object type
Payload
Rocket body
Debris
Shape & HBR
Box + 2 Pan, 29 m
Radar Cross Section
36.964 m², Large (>1 m²)

Expand to show TLE details & history

TLE from 8 hours ago
0 STARLINK-32365
1 61625U 24191E   25181.85125745  .00000387  00000-0  23581-4 0  9992
2 61625  43.0005 136.5193 0001092 278.9776  81.0952 15.27575187 39027
Epoch: 2025-06-30T20:25Z
TLE epoch observation values (Epoch: 2025-06-30T20:25:48.643Z)
Latitude
-0.00003°
Longitude
-89.08854°
Altitude
482.723 km
Speed
7.626 km/s
True Right ascension
09h 06m 04s
True Declination
0° 00' 00"
Sunlit
Object was in daylight at epoch
Visualization orbit readout
Latitude
14.78145°
Longitude
-74.61476°
Altitude
482.257 km
Speed
7.627 km/s
Apparent Right ascension
07h 36m 43s
Apparent Declination
-15° 54' 59"
Sunlit
Object is in daylight
Visualization observer readout
Local Sidereal Time
15:59:45
Azimuth
280.897° WNW
Elevation
-37.371°
Doppler factor
1
Orbital elements
Apogee altitude
485.758 km
Perigee altitude
484.259 km
Semi-major axis
6,863.146 km
Eccentricity
0.00011
Inclination
43.0005°
RAAN
136.5193°
Arg. of periapsis
278.9776°
True anomaly
Unknown
Mean anomaly
81.0952°
Eccentric anomaly
Unknown
Mean motion
3.81732 °/min
Orbital period
94.31 mins
BSTAR
0.000023581
Loading maneuver chart data...
Loading SW <> Apogee altitude chart data...
Loading historical data...
Loading historical data...
Loading historical data...
Loading historical data...
Loading historical data...
Loading historical data...
Loading historical data...

STARLINK-32365 Visibility forecast

Observer location: undefined°, undefined°

Span
Click to sort rows by Start time (UTC) header in descending order
Start Az.
Max El. time (UTC)
Max El. Az.
Max El.
End time (UTC)
End Az.
6 mins2025-07-01 04:41:18.205Z290.481° WNW2025-07-01 04:44:18.205Z21.151° NNE43.799°2025-07-01 04:47:18.205Z99.291° ESE
5 mins2025-07-01 06:21:18.205Z257.61° W2025-07-01 06:23:18.205Z202.324° SSW27.431°2025-07-01 06:26:18.205Z148.043° SSE
5 mins2025-07-02 00:56:18.205Z241.661° WSW2025-07-02 00:58:18.205Z144.98° SSE44.294°2025-07-02 01:01:18.205Z73.944° E
5 mins2025-07-02 02:35:18.205Z288.514° WNW2025-07-02 02:37:18.205Z354.426° N38.361°2025-07-02 02:40:18.205Z71.477° E
5 mins2025-07-02 04:14:18.205Z292.921° NW2025-07-02 04:16:18.205Z341.331° N43.114°2025-07-02 04:19:18.205Z97.94° ESE
|